This demonstration page uses our WeatherBlox Daily Observations layout. Learn more.

36.17497, -115.13722

Hourly Observations for February 24, 2018

Temp ( °F °C ) Dew Point ( °F °C ) Humidity (%) Winds ( mph kmh ) Pressure ( in mb ) Visibility ( mi km ) Precip ( " mm )
12:53 am 00:53 Clear 37 2.8 7 -13.9 28 28 N 9 15 30.34 1028 10 16.0934 0 0
1:53 am 01:53 Clear 37 2.8 5 -15 26 26 N 8 13 30.34 1028 10 16.0934 0 0
2:53 am 02:53 Clear 36 2.2 5 -15 27 27 N 12 19 30.34 1028 10 16.0934 0 0
3:53 am 03:53 Clear 34 1.1 5 -15 29 29 N 10 17 30.35 1028 10 16.0934 0 0
4:53 am 04:53 Clear 35 1.7 4 -15.6 27 27 N 13 20 30.35 1028 10 16.0934 0 0
5:53 am 05:53 Clear 33 0.6 4 -15.6 29 29 NW 9 15 30.37 1029 10 16.0934 0 0
6:53 am 06:53 Sunny 33 0.6 4 -15.6 29 29 NW 5 7 30.38 1029 10 16.0934 0 0
7:53 am 07:53 Sunny 36 2.2 7 -13.9 30 30 Calm 30.39 1029 10 16.0934 0 0
8:53 am 08:53 Sunny 38 3.3 6 -14.4 26 26 Calm 30.38 1029 10 16.0934 0 0
9:53 am 09:53 Sunny 40 4.4 5 -15 23 23 VRB 3 6 30.37 1028 10 16.0934 0 0
10:53 am 10:53 Sunny 43 6.1 5 -15 21 21 S 8 13 30.33 1027 10 16.0934 0 0
11:53 am 11:53 Sunny 45 7.2 4 -15.6 18 18 SSE 3 6 30.29 1026 10 16.0934 0 0
12:53 pm 12:53 Sunny 47 8.3 4 -15.6 17 17 ESE 5 7 30.24 1024 10 16.0934 0 0
1:53 pm 13:53 Sunny 49 9.4 2 -16.7 14 14 SE 5 7 30.18 1022 10 16.0934 0 0
2:53 pm 14:53 Sunny 50 10 2 -16.7 14 14 ESE 9 15 30.14 1021 10 16.0934 0 0
3:53 pm 15:53 Sunny 51 10.6 2 -16.7 13 13 E 10 17 30.1 1019 10 16.0934 0 0
4:53 pm 16:53 Sunny 49 9.4 6 -14.4 17 17 NE 14 22 30.08 1019 10 16.0934 0 0
5:53 pm 17:53 Clear 48 8.9 7 -13.9 19 19 NE 10 17 30.09 1019 10 16.0934 0 0
6:53 pm 18:53 Clear 47 8.3 7 -13.9 19 19 N 10 17 30.12 1020 10 16.0934 0 0
7:53 pm 19:53 Clear 46 7.8 6 -14.4 19 19 N 5 7 30.15 1021 10 16.0934 0 0
8:53 pm 20:53 Clear 44 6.7 3 -16.1 18 18 NE 10 17 30.19 1022 10 16.0934 0 0
9:53 pm 21:53 Cloudy 44 6.7 1 -17.2 16 16 SE 5 7 30.19 1022 10 16.0934 0 0
10:53 pm 22:53 Clear 43 6.1 0 -17.8 16 16 NNW 6 9 30.19 1022 10 16.0934 0 0
11:53 pm 23:53 Clear 42 5.6 4 -15.6 20 20 NNW 9 15 30.21 1023 10 16.0934 0 0

Powered by AerisWeather